Location: Canet
(43.3261°N, 5.3723°E)
Time: 18:42:59
(UTC+00:00)

Cosmos 1428 Rocket - Pass Details

Date: 24 January 2021
Orbit: 947 x 989 km, 82.9° (Epoch: 07 March)

Event Time Altitude Azimuth Distance (km) Brightness Sun altitude
Rises 18:13:11 0° 179° (S) 3,670 7.6 -16.9°
Reaches altitude 10° 18:15:41 10° 178° (S) 2,731 6.9 -17.4°
Maximum altitude 18:21:56 74° 95° (E) 1,029 4.4 -18.5°
Drops below altitude 10° 18:28:15 10° 11° (NNE) 2,759 6.7 -19.6°
Sets 18:30:47 0° 10° (N) 3,711 7.4 -20.1°
